Location: Peebles
(55.6412°N, 3.1714°W)
Time: 22:29:35
(UTC+01:00)

CENTAUR R/B - Pass Details

Date: 22 January 2022
Orbit: 716 x 1471 km, 63.4° (Epoch: 08 May)

Event Time Altitude Azimuth Distance (km) Brightness Sun altitude
Rises 22:06:52 0° 299° (WNW) 3,896 6.4 -45.6°
Reaches altitude 10° 22:09:24 10° 304° (WNW) 3,041 5.6 -45.9°
Enters shadow 22:12:41 29° 314° (NW) 2,051 4.4 -46.2°
